This is the latest recevied weather packets stored in our database for station/object KA7EII-13. If no packets are shown the sender has not sent any weather packets the latest 10 day(s).
| Time | Temp. | Humidity | Pressure | Rain* | Wind** | Luminosity | Snow |
|---|---|---|---|---|---|---|---|
| 1777749753 | 22.22° C | 23% | 1108.4 hPa | 0 mm | - | 760 W/m² | - |
| 1777749449 | 21.67° C | 26% | 1108.3 hPa | 0 mm | - | 745 W/m² | - |
| 1777749147 | 21.67° C | 27% | 1108.4 hPa | 0 mm | - | 686 W/m² | - |
| 1777748844 | 21.67° C | 25% | 1108.4 hPa | 0 mm | - | 767 W/m² | - |
| 1777748542 | 21.67° C | 26% | 1108.6 hPa | 0 mm | - | 736 W/m² | - |
| 1777748241 | 21.67° C | 28% | 1108.6 hPa | 0 mm | - | 755 W/m² | - |
| 1777747938 | 21.11° C | 27% | 1108.7 hPa | 0 mm | - | 706 W/m² | - |
| 1777747634 | 20.56° C | 28% | 1108.7 hPa | 0 mm | - | 669 W/m² | - |
| 1777747330 | 21.11° C | 27% | 1109.1 hPa | 0 mm | - | 623 W/m² | - |
| 1777747027 | 21.11° C | 25% | 1109.2 hPa | 0 mm | - | 513 W/m² | - |
| 1777746723 | 21.11° C | 24% | 1109.1 hPa | 0 mm | - | 620 W/m² | - |
| 1777746418 | 21.11° C | 25% | 1109.2 hPa | 0 mm | - | 604 W/m² | - |
| 1777746114 | 21.11° C | 29% | 1109 hPa | 0 mm | - | 643 W/m² | - |
| 1777745812 | 20.56° C | 29% | 1109.2 hPa | 0 mm | - | 671 W/m² | - |
| 1777745511 | 20.56° C | 30% | 1109.3 hPa | 0 mm | - | 691 W/m² | - |
| 1777745207 | 20.56° C | 31% | 1109.2 hPa | 0 mm | - | 654 W/m² | - |
| 1777744904 | 20° C | 31% | 1109.4 hPa | 0 mm | - | 678 W/m² | - |
| 1777744603 | 20° C | 31% | 1109.4 hPa | 0 mm | - | 729 W/m² | - |
| 1777744299 | 20° C | 32% | 1109.7 hPa | 0 mm | - | 708 W/m² | - |
| 1777743997 | 19.44° C | 33% | 1109.5 hPa | 0 mm | - | 691 W/m² | - |
| 1777743692 | 18.89° C | 35% | 1109.7 hPa | 0 mm | - | 541 W/m² | - |
| 1777743391 | 18.89° C | 32% | 1109.8 hPa | 0 mm | - | 709 W/m² | - |
| 1777743088 | 19.44° C | 32% | 1109.9 hPa | 0 mm | - | 746 W/m² | - |
| 1777742785 | 18.89° C | 33% | 1109.9 hPa | 0 mm | - | 809 W/m² | - |
| 1777742482 | 17.78° C | 33% | 1109.8 hPa | 0 mm | - | 613 W/m² | - |
* Rain latest hour (hover to see other rain measurements)
** Current wind speed in m/s (hover to see current wind gust speed)